map of SCV home
Great Circle Mapper logo
SCV - Airport
Location
City:  Suceava, Romania
Name:Salcea
ICAO / IATA:LRSV / SCV

Details
Type:Airport (Aerodrome, Airfield)
Use:Public/Civil
Latitude:4741'15"N (47.687500)
Longitude:2621'15"E (26.354056)
Datum:WGS 1984
Elevation:1375 ft (419 m)
Variation:5.87E (WMM2015 magnetic declination)
0.11 annual change
Runways:1
Longest:5906 × 98 ft (1800 × 30 m), paved

Time
Time Zone:UTC+2 (DST+3)
Local Time:

Weather
METAR:LRSV 041800Z AUTO 27007KT 9999 BKN130/// OVC150/// 05/M01 Q1021

Related Locations
Nearby:
Farthest:CHT: 11309 mi / 18200 km
Waitangi [Tuuta], Chatham Islands, NZ

Find:

   beyond  
but within

Other Information
Maps:
NOTAMs:
Links:
Sources:

  
flag of Romania   

Sectional Chart

Flight Planning
at skyvector.com

Satellite Image

Google Maps Satellite View

 

Copyright © 2004-2015 Karl L. Swartz. All rights reserved.
The Great Circle Mapper name and logo are trademarks of the Great Circle Mapper.
All other trademarks mentioned herein belong to their respective owners.
Please see credits for attibutions and further copyright information.

  Follow gcmap on Facebook Follow gcmap on Twitter Follow gcmap on Google+

hCard Microformat

Geo Microformat